Weather History for LMML - January, 2013

Change the Weather History Date:

Sunday, January 6, 2013

  Actual Average Record
Temperature  
Mean Temperature 56 °F -  
Max Temperature 62 °F 59 °F - ()
Min Temperature 51 °F 49 °F - ()
Degree Days  
Heating Degree Days 8    
Growing Degree Days 6 (Base 50)    
Moisture  
Dew Point 49 °F    
Average Humidity 75    
Maximum Humidity 88    
Minimum Humidity 55    
Precipitation  
Precipitation 0.00 in 0.11 in - ()
Sea Level Pressure  
Sea Level Pressure 30.12 in    
Wind  
Wind Speed 13 mph ()    
Max Wind Speed 23 mph    
Max Gust Speed -    
Visibility 7.1 miles    
Events      
T = Trace of Precipitation, MM = Missing Value Source: Averaged Metar Reports

Daily Weather History Graph

Daily Weather History Graph

Search for Another Location

Airport or City:

Trip Planner

Search our weather history database for the weather conditions in past years. The results will help you decide how hot, cold, wet, or windy it might be!

Date:

Astronomy

Jan. 06, 2013 Rise Set
Actual Time 7:12 AM CET 5:03 PM CET
Civil Twilight 6:44 AM CET 5:31 PM CET
Nautical Twilight 6:12 AM CET 6:03 PM CET
Astronomical Twilight 5:41 AM CET 6:34 PM CET
Moon 1:12 AM CET (1/6) 12:15 PM CET (1/6)
Length of Visible Light 10h 47m
Length of Day
9h 50m
Waning Crescent, 36% of the Moon is Illuminated
Jan 6
Waning Crescent
Jan 11
New
Jan 19
First Quarter
Jan 27
Full
Feb 3
Last Quarter

Hourly Weather History & Observations

Time (CET) Temp. Dew Point Humidity Pressure Visibility Wind Dir Wind Speed Gust Speed Precip Events Conditions
12:15 AM 57.2 °F 50.0 °F 77% 30.09 in 6.2 mi NNW 15.0 mph - N/A   Overcast
12:45 AM 55.4 °F 48.2 °F 77% 30.09 in - NNW 13.8 mph - N/A   Clear
1:00 AM 55 °F 48 °F 71% 30.10 in 15 mi NW 12.7 mph - -  
1:15 AM 55.4 °F 48.2 °F 77% 30.09 in 6.2 mi NW 13.8 mph - N/A   Overcast
1:45 AM 55.4 °F 48.2 °F 77% 30.06 in - NW 10.4 mph - N/A   Clear
2:15 AM 53.6 °F 48.2 °F 82% 30.06 in - NNW 15.0 mph - N/A   Clear
2:45 AM 53.6 °F 48.2 °F 82% 30.09 in - NNW 13.8 mph - N/A   Clear
3:15 AM 53.6 °F 48.2 °F 82% 30.09 in 6.2 mi NNW 13.8 mph - N/A   Partly Cloudy
3:45 AM 53.6 °F 48.2 °F 82% 30.06 in - NNW 12.7 mph - N/A   Clear
4:00 AM 53 °F 47 °F 75% 30.09 in 9 mi NNW 12.7 mph - -   Scattered Clouds
4:15 AM 53.6 °F 46.4 °F 77% 30.06 in 6.2 mi NNW 11.5 mph - N/A   Partly Cloudy
4:45 AM 51.8 °F 48.2 °F 88% 30.06 in 6.2 mi NW 12.7 mph - N/A   Partly Cloudy
5:15 AM 53.6 °F 46.4 °F 77% 30.06 in 6.2 mi NW 10.4 mph - N/A   Partly Cloudy
5:45 AM 53.6 °F 46.4 °F 77% 30.06 in 6.2 mi NNW 6.9 mph - N/A   Partly Cloudy
6:15 AM 53.6 °F 46.4 °F 77% 30.09 in 6.2 mi NW 11.5 mph - N/A   Partly Cloudy
6:45 AM 53.6 °F 46.4 °F 77% 30.09 in 6.2 mi NNW 10.4 mph - N/A   Partly Cloudy
7:00 AM 53 °F 47 °F 74% 30.11 in 9 mi NW 9.2 mph - -  
7:15 AM 53.6 °F 46.4 °F 77% 30.09 in 6.2 mi NW 8.1 mph - N/A   Partly Cloudy
7:45 AM 53.6 °F 48.2 °F 82% 30.09 in 6.2 mi NW 9.2 mph - N/A   Partly Cloudy
8:15 AM 55.4 °F 48.2 °F 77% 30.12 in 6.2 mi NW 8.1 mph - N/A   Partly Cloudy
8:45 AM 57.2 °F 50.0 °F 77% 30.12 in 6.2 mi NNW 9.2 mph - N/A   Partly Cloudy
9:15 AM 59.0 °F 51.8 °F 77% 30.15 in 6.2 mi NNW 10.4 mph - N/A   Partly Cloudy
9:45 AM 60.8 °F 51.8 °F 72% 30.15 in 6.2 mi North 11.5 mph - N/A   Partly Cloudy
10:00 AM 60 °F 51 °F 63% 30.17 in 12 mi North 15.0 mph - -   Scattered Clouds
10:15 AM 60.8 °F 50.0 °F 68% 30.15 in - North 18.4 mph - N/A   Clear
10:45 AM 60.8 °F 50.0 °F 68% 30.15 in - North 17.3 mph - N/A   Clear
11:15 AM 60.8 °F 50.0 °F 68% 30.15 in - North 17.3 mph - N/A   Clear
11:45 AM 62.6 °F 50.0 °F 63% 30.15 in - North 15.0 mph - N/A   Clear
12:15 PM 62.6 °F 50.0 °F 63% 30.15 in - North 18.4 mph - N/A   Clear
12:45 PM 60.8 °F 50.0 °F 68% 30.12 in - North 21.9 mph - N/A   Clear
1:00 PM 62 °F 50 °F 55% 30.14 in 12 mi North 20.7 mph - -  
1:15 PM 62.6 °F 50.0 °F 63% 30.12 in 6.2 mi North 19.6 mph - N/A   Partly Cloudy
1:45 PM 62.6 °F 48.2 °F 59% 30.12 in 6.2 mi North 20.7 mph - N/A   Partly Cloudy
2:15 PM 62.6 °F 48.2 °F 59% 30.12 in - North 20.7 mph - N/A   Clear
2:45 PM 62.6 °F 48.2 °F 59% 30.12 in 6.2 mi North 16.1 mph - N/A   Partly Cloudy
3:15 PM 62.6 °F 46.4 °F 55% 30.12 in 6.2 mi North 23.0 mph - N/A   Partly Cloudy
3:45 PM 60.8 °F 50.0 °F 68% 30.12 in 6.2 mi NNW 19.6 mph - N/A   Partly Cloudy
4:00 PM 60 °F 49 °F 58% 30.14 in 12 mi NNW 18.4 mph - -   Scattered Clouds
4:15 PM 59.0 °F 50.0 °F 72% 30.12 in 6.2 mi NNW 16.1 mph - N/A   Partly Cloudy
4:45 PM 59.0 °F 50.0 °F 72% 30.12 in 6.2 mi NNW 12.7 mph - N/A   Partly Cloudy
5:15 PM 57.2 °F 50.0 °F 77% 30.12 in 6.2 mi NNW 11.5 mph - N/A   Partly Cloudy
5:45 PM 57.2 °F 50.0 °F 77% 30.12 in 6.2 mi NW 10.4 mph - N/A   Partly Cloudy
6:15 PM 55.4 °F 50.0 °F 82% 30.15 in - NNW 16.1 mph - N/A   Clear
6:45 PM 57.2 °F 50.0 °F 77% 30.15 in - NW 11.5 mph - N/A   Clear
7:15 PM 57.2 °F 51.8 °F 82% 30.15 in 6.2 mi Variable 3.5 mph - N/A   Partly Cloudy
7:45 PM 55.4 °F 51.8 °F 88% 30.15 in 6.2 mi NNW 18.4 mph - N/A   Partly Cloudy
8:15 PM 55.4 °F 51.8 °F 88% 30.15 in 6.2 mi NNW 13.8 mph - N/A   Partly Cloudy
8:45 PM 55.4 °F 51.8 °F 88% 30.15 in 6.2 mi NNW 15.0 mph - N/A   Partly Cloudy
9:15 PM 55.4 °F 51.8 °F 88% 30.15 in 6.2 mi North 10.4 mph - N/A   Partly Cloudy
9:45 PM 55.4 °F 51.8 °F 88% 30.15 in 6.2 mi NNW 13.8 mph - N/A   Partly Cloudy
10:00 PM 56 °F 53 °F 84% 30.16 in 7 mi NNW 16.1 mph - -   Scattered Clouds
10:15 PM 55.4 °F 51.8 °F 88% 30.15 in - NW 13.8 mph - N/A   Clear
10:45 PM 55.4 °F 51.8 °F 88% 30.15 in - NNW 13.8 mph - N/A   Clear
11:15 PM 55.4 °F 51.8 °F 88% 30.15 in - NNW 13.8 mph - N/A   Clear
11:45 PM 55.4 °F 51.8 °F 88% 30.15 in - NNW 16.1 mph - N/A   Clear